This is the latest recevied weather packets stored in our database for station/object DL1MMS-10. If no packets are shown the sender has not sent any weather packets the latest 10 day(s).
| Time | Temp. | Humidity | Pressure | Rain* | Wind** | Luminosity | Snow |
|---|---|---|---|---|---|---|---|
| 1778064852 | 23.89° C | 41% | 1007 hPa | 0 mm | - | - | - |
| 1778064551 | 24.44° C | 40% | 1006.9 hPa | 0 mm | - | - | - |
| 1778064251 | 24.44° C | 41% | 1007 hPa | 0 mm | - | - | - |
| 1778063951 | 24.44° C | 40% | 1007 hPa | 0 mm | - | - | - |
| 1778063650 | 26.11° C | 36% | 1007.1 hPa | 0 mm | - | - | - |
| 1778063350 | 28.33° C | 37% | 1007.4 hPa | 0 mm | - | - | - |
| 1778063050 | 27.78° C | 38% | 1007.3 hPa | 0 mm | - | - | - |
| 1778062750 | 26.67° C | 40% | 1007.5 hPa | 0 mm | - | - | - |
| 1778062449 | 24.44° C | 45% | 1007.4 hPa | 0 mm | - | - | - |
| 1778062149 | 21.11° C | 51% | 1007.6 hPa | 0 mm | - | - | - |
| 1778061849 | 19.44° C | 52% | 1007.7 hPa | 0 mm | - | - | - |
| 1778061548 | 19.44° C | 53% | 1007.7 hPa | 0 mm | - | - | - |
| 1778061248 | 18.89° C | 54% | 1007.5 hPa | 0 mm | - | - | - |
| 1778060948 | 18.89° C | 55% | 1007.6 hPa | 0 mm | - | - | - |
| 1778060648 | 18.89° C | 54% | 1007.6 hPa | 0 mm | - | - | - |
| 1778060347 | 18.33° C | 55% | 1007.7 hPa | 0 mm | - | - | - |
| 1778060047 | 18.33° C | 56% | 1007.4 hPa | 0 mm | - | - | - |
| 1778059747 | 18.33° C | 56% | 1007.7 hPa | 0 mm | - | - | - |
| 1778059446 | 18.33° C | 56% | 1007.9 hPa | 0 mm | - | - | - |
| 1778059146 | 17.78° C | 58% | 1007.7 hPa | 0 mm | - | - | - |
| 1778058846 | 17.78° C | 58% | 1007.7 hPa | 0 mm | - | - | - |
| 1778058546 | 17.22° C | 60% | 1007.7 hPa | 0 mm | - | - | - |
| 1778058245 | 17.22° C | 61% | 1007.8 hPa | 0 mm | - | - | - |
| 1778057945 | 16.67° C | 62% | 1007.7 hPa | 0 mm | - | - | - |
| 1778057645 | 16.67° C | 63% | 1007.8 hPa | 0 mm | - | - | - |
* Rain latest hour (hover to see other rain measurements)
** Current wind speed in m/s (hover to see current wind gust speed)